Regional Weather Roundup
Issued by NWS

Home | Current Version | Previous Version | Graphics & Text | Print | Product List | Glossary On
Versions: 1 2 3 4 5 6 7 8 9 10 11 12 13 14 15 16 17 18 19 20 21 22 23 24 25 26 27 28 29 30 31 32 33 34 35 36 37 38 39 40 41 42 43 44 45 46 47 48 49 50
000
ASUS43 KMPX 250401
RWRMN
WEATHER ROUNDUP FOR MINNESOTA
NATIONAL WEATHER SERVICE TWIN CITIES/CHANHASSEN MN
1100 PM CDT MON APR 24 2017


NOTE: "FAIR" INDICATES FEW OR NO CLOUDS BELOW 12,000 FEET WITH NO
SIGNIFICANT WEATHER AND/OR OBSTRUCTIONS TO VISIBILITY. N/A MEANS
CURRENT SKY AND/OR WEATHER CONDITIONS ARE NOT AVAILABLE.

MNZ060>063-068>070-250500-
   Twin Cities Metro

CITY           SKY/WX    TMP DP  RH WIND       PRES   REMARKS
TWIN CITIES    CLOUDY    66  31  27 S6        29.55S
ST PAUL        CLOUDY    64  35  34 S10       29.55F
CRYSTAL        CLOUDY    65  31  28 S8        29.55R
LAKEVILLE      CLOUDY    63  34  34 S10       29.56S
EDEN PRAIRIE   CLOUDY    65  34  31 SW7       29.55R
SOUTH ST PAUL  CLOUDY    66  32  27 S9        29.55F
LAKE ELMO      CLOUDY    64  34  32 SE9       29.57S
$$
MNZ001>005-007-008-013>017-022>024-027-028-250500-
   Northwest Minnesota

CITY           SKY/WX    TMP DP  RH WIND       PRES   REMARKS
BEMIDJI        DRIZZLE   40  38  94 E3        29.57R
HALLOCK        CLOUDY    34  30  86 NE15      29.72S WCI  24
ROSEAU         LGT SNOW  32  27  80 NE15      29.69S WCI  22
WARROAD        LGT SNOW  32  28  86 NE14G22   29.69S WCI  22
THIEF RVR FALL MIX PCPN  33  32  96 N17       29.64S FOG     WCI  22
CROOKSTON      CLOUDY    34  34 100 N15       29.66S WCI  24
FOSSTON        DRIZZLE   37  37 100 N10       29.59R
DETROIT LAKES  CLOUDY    43  43 100 NW12      29.57R FOG
MOORHEAD       CLOUDY    37  36  93 N18G24    29.61S
PARK RAPIDS    CLOUDY    48  44  86 E8        29.53S
MAHNOMEN       CLOUDY    40  40  98 N10       29.57R FOG
$$
MNZ006-009>011-018-025>026-250500-
   North Central Minnesota

CITY           SKY/WX    TMP DP  RH WIND       PRES   REMARKS
BAUDETTE       CLOUDY    34  32  92 NE9       29.64F WCI  27
FLAG ISLAND    FLURRIES  30  28  93 NE16G22   29.71R WCI  19
INTL FALLS     LGT RAIN  35  33  92 SE15      29.63F WCI  25
WASKISH        CLOUDY    37  36  93 NE7       29.61S
BIG FORK       RAIN      37  36  93 E8        29.61S
LONGVILLE      LGT RAIN  39  39 100 E6        29.57F
GRAND RAPIDS   LGT RAIN  38  35  89 SE7       29.63R
CRANE LAKE     DRIZZLE   34  32  93 CALM      29.68F
ORR            CLOUDY    34  30  86 E5        29.61F WCI  30
COOK           DRIZZLE   36  34  93 E7        29.64F
WALKER         CLOUDY    41  39  93 E10       29.56F
$$
MNZ012-019>021-037-250500-
   Northeast Minnesota

CITY           SKY/WX    TMP DP  RH WIND       PRES   REMARKS
DULUTH         CLOUDY    37  33  85 E16G28    29.62F
ELY            CLOUDY    36  34  93 CALM      29.66R
HIBBING        CLOUDY    36  34  92 E6        29.62F
EVELETH        CLOUDY    37  33  85 NE7       29.63F
DULUTH HARBOR  CLOUDY    37  36  93 NE26G32   29.67S
TWO HARBORS    CLOUDY    41  34  75 E10G16    29.64F
SILVER BAY     CLOUDY    41  34  75 NE14G25   29.65F
GRAND MARAIS     N/A     43  33  68 NE6       29.73F
G MARAIS ARPRT CLOUDY    34  27  75 N15       29.71F WCI  24
$$
MNZ029>031-032-039>041-046>048-054>057-064-250500-
   West Central Minnesota

CITY           SKY/WX    TMP DP  RH WIND       PRES   REMARKS
FERGUS FALLS   CLOUDY    39  39 100 NW16      29.57S FOG
WHEATON        CLOUDY    39  36  87 NW15G24   29.62R
ALEXANDRIA     CLOUDY    54  45  71 W9        29.53R
ELBOW LAKE     CLOUDY    40  40 100 W17       29.56S FOG
WADENA         CLOUDY    48  46  93 NE3       29.52S
GLENWOOD       CLOUDY    54  46  76 W9        29.53R
APPLETON       CLOUDY    46  41  81 NW20      29.56R
BENSON         CLOUDY    48  41  76 N22G28    29.56R
ORTONVILLE     CLOUDY    41  37  87 NW16G25   29.58S
MADISON        CLOUDY    46  43  87 NW21G26   29.57R
WILLMAR        MOCLDY    59  45  58 S6        29.52S
$$
MNZ033>034-036-042>043-049>051-058-059-250500-
   Central Minnesota

CITY           SKY/WX    TMP DP  RH WIND       PRES   REMARKS
ST CLOUD       CLOUDY    58  40  51 SE5       29.53S
SAUK CENTRE    CLOUDY    54  43  67 NE7       29.52S
PAYNESVILLE    CLOUDY    58  43  56 SE7       29.51F
AITKIN         CLOUDY    43  34  70 E8        29.58S
PINE RIVER     LGT RAIN  41  41 100 E5        29.60R
BRAINERD       LGT RAIN  47  42  83 NE6       29.55S
STAPLES        DRIZZLE   48  45  87 NE3       29.52F
LONG PRAIRIE   LGT RAIN  52  43  71 N3        29.53S
LITTLE FALLS   LGT RAIN  54  41  62 E5        29.54S
LITCHFIELD     DRIZZLE   63  46  55 S7        29.53S
BUFFALO        DRIZZLE   60  41  50 S6        29.56F
MAPLE LAKE     CLOUDY    61  43  51 S6        29.55F
HUTCHINSON     DRIZZLE   56  48  73 E7        29.54F
$$
MNZ037-044-045-052-053-250500-
   East Central Minnesota

CITY           SKY/WX    TMP DP  RH WIND       PRES   REMARKS
PRINCETON      CLOUDY    63  36  36 S7        29.56R
MORA           CLOUDY    52  37  58 N5        29.58R
CAMBRIDGE      CLOUDY    64  43  45 SE3       29.54S
RUSH CITY      CLOUDY    62  33  33 S7        29.56R
MOOSE LAKE     CLOUDY    36  32  87 NE6       29.60S
HINCKLEY       CLOUDY    45  36  70 N7        29.58S
CLOQUET        CLOUDY    36  32  87 E9G16     29.62S
MCGREGOR       CLOUDY    37  34  87 NE6       29.61S
$$
MNZ071>073-080-081-089-090-097-098-250500-
   Southwest Minnesota

CITY           SKY/WX    TMP DP  RH WIND       PRES   REMARKS
MONTEVIDEO     CLOUDY    48  43  81 N14G20    29.55R
GRANITE FALLS  CLOUDY    52  47  84 NW18G24   29.55R
CANBY          CLOUDY    46  41  82 NW15      29.58R
MARSHALL       CLOUDY    50  45  83 NW15G21   29.54R
REDWOOD FALLS  CLOUDY    59  45  59 SE9       29.50S
OLIVIA         DRIZZLE   59  46  63 SE5       29.50S
PIPESTONE      CLEAR     52  39  62 NW8       29.54S
WINDOM         CLOUDY    57  46  67 W5        29.51S
WORTHINGTON    CLOUDY    55  45  68 W10       29.53R
JACKSON        CLOUDY    61  41  48 S14       29.52F
TRACY          CLOUDY    58  47  68 NW15      29.53R
SLAYTON        CLOUDY    55  46  71 W8        29.53S
$$
MNZ065>067-074>077-082>085-091>093-250500-
   South Central Minnesota

CITY           SKY/WX    TMP DP  RH WIND       PRES   REMARKS
MANKATO        CLOUDY    59  45  59 SE9       29.54F
NEW ULM        CLOUDY    55  45  67 SE8       29.51F
ST JAMES       CLOUDY    57  46  67 E7        29.52F
FAIRMONT       CLOUDY    61  36  39 S13       29.52F
GLENCOE        CLOUDY    60  48  66 SE7       29.54F
FARIBAULT      CLOUDY    64  32  29 SE10G16   29.57S
OWATONNA       MOCLDY    63  28  27 SE12      29.56F
WASECA         CLOUDY    59  36  41 SE9       29.57F
ALBERT LEA     CLOUDY    61  28  29 S12       29.56F
$$
MNZ078>079-086>088-094>096-250500-
   Southeast Minnesota

CITY           SKY/WX    TMP DP  RH WIND       PRES   REMARKS
ROCHESTER      CLOUDY    60  34  37 S12       29.61F
RED WING       CLOUDY    66  27  22 SE8       29.58F
STANTON        CLOUDY    67  28  23 SE16      29.55F
DODGE CENTER   CLOUDY    57  34  41 SE8       29.59F
WINONA         CLOUDY    61  37  41 SE5       29.63S
AUSTIN         PTCLDY    59  30  33 S8        29.58F
PRESTON        PTCLDY    59  30  34 SE12      29.62F
$$
ABBREVIATIONS USED IN REMARKS
   TC - TEMPERATURES IN CELSIUS
  WCI - WIND CHILL INDEX
   HX - HEAT INDEX
  VSB - VISIBILITY
$$




USA.gov is the U.S. government's official web portal to all federal, state and local government web resources and services.